Weather History for K05U - December, 2012

Change the Weather History Date:

Monday, December 31, 2012

  Actual Average Record
Temperature  
Mean Temperature 6 °F -  
Max Temperature 21 °F - - ()
Min Temperature -9 °F - - ()
Degree Days  
Heating Degree Days 59    
Moisture  
Dew Point -1 °F    
Average Humidity 76    
Maximum Humidity 92    
Minimum Humidity 50    
Precipitation  
Precipitation 0.00 in - - ()
Sea Level Pressure  
Sea Level Pressure 30.17 in    
Wind  
Wind Speed 2 mph (SW)    
Max Wind Speed 8 mph    
Max Gust Speed -    
Visibility 9 miles    
Events      
T = Trace of Precipitation, MM = Missing Value Source: NWS Daily Summary

Daily Weather History Graph

Daily Weather History Graph

Search for Another Location

Airport or City:

Trip Planner

Search our weather history database for the weather conditions in past years. The results will help you decide how hot, cold, wet, or windy it might be!

Date:

Astronomy

Dec. 31, 2012 Rise Set
Actual Time 7:04 AM PST 4:30 PM PST
Civil Twilight 6:34 AM PST 5:00 PM PST
Nautical Twilight 6:00 AM PST 5:34 PM PST
Astronomical Twilight 5:27 AM PST 6:06 PM PST
Moon 8:04 PM PST (12/31) 8:49 AM PST (12/31)
Length of Visible Light 10h 26m
Length of Day
9h 25m
Waning Gibbous, 89% of the Moon is Illuminated
Dec 31
Waning Gibbous
Jan 4
Last Quarter
Jan 11
New
Jan 18
First Quarter
Jan 26
Full

Hourly Weather History & Observations

Time (PST) Temp. Windchill Dew Point Humidity Pressure Visibility Wind Dir Wind Speed Gust Speed Precip Events Conditions
12:00 AM 8.6 °F 2.0 °F 5.0 °F 85% 30.09 in 5.0 mi West 3.5 mph - N/A   Overcast
12:20 AM 8.6 °F 2.0 °F 5.0 °F 85% 30.09 in 6.0 mi West 3.5 mph - N/A   Overcast
12:40 AM 8.6 °F - 5.0 °F 85% 30.09 in 5.0 mi Calm Calm - N/A   Overcast
1:00 AM 8.6 °F - 5.0 °F 85% 30.09 in 5.0 mi Calm Calm - N/A   Overcast
1:20 AM 8.6 °F - 5.0 °F 85% 30.10 in 7.0 mi Calm Calm - N/A   Overcast
1:40 AM 8.6 °F - 5.0 °F 85% 30.11 in 7.0 mi Calm Calm - N/A   Overcast
2:00 AM 10.4 °F - 6.8 °F 85% 30.11 in 7.0 mi Calm Calm - N/A   Overcast
2:20 AM 8.6 °F - 6.8 °F 92% 30.11 in 8.0 mi Calm Calm - N/A   Overcast
2:40 AM 8.6 °F - 5.0 °F 85% 30.11 in 8.0 mi Calm Calm - N/A   Overcast
3:00 AM 5.0 °F - 1.4 °F 85% 30.11 in 7.0 mi Calm Calm - N/A   Overcast
3:20 AM 6.8 °F - 1.4 °F 79% 30.12 in 8.0 mi Calm Calm - N/A   Overcast
3:40 AM 6.8 °F - 5.0 °F 92% 30.11 in 7.0 mi Calm Calm - N/A   Overcast
4:00 AM 6.8 °F - 1.4 °F 79% 30.11 in 8.0 mi Calm Calm - N/A   Overcast
4:20 AM 5.0 °F - 1.4 °F 85% 30.11 in 7.0 mi Calm Calm - N/A   Overcast
5:00 AM 5.0 °F - -0.4 °F 78% 30.12 in 7.0 mi Calm Calm - N/A   Overcast
5:20 AM 5.0 °F - -0.4 °F 78% 30.13 in 10.0 mi Calm Calm - N/A   Overcast
5:40 AM 3.2 °F -4.2 °F -0.4 °F 85% 30.14 in 7.0 mi SW 3.5 mph - N/A   Overcast
6:00 AM -0.4 °F - -4.0 °F 85% 30.15 in 7.0 mi Calm Calm - N/A   Overcast
6:20 AM -0.4 °F - -4.0 °F 85% 30.16 in 8.0 mi Calm Calm - N/A   Overcast
6:40 AM -0.4 °F - -4.0 °F 85% 30.17 in 9.0 mi Calm Calm - N/A   Overcast
7:00 AM -0.4 °F - -2.2 °F 92% 30.18 in 6.0 mi Calm Calm - N/A   Overcast
7:20 AM 1.4 °F - -2.2 °F 85% 30.17 in 4.0 mi Calm Calm - N/A   Overcast
7:40 AM -0.4 °F -8.3 °F -4.0 °F 85% 30.16 in 4.0 mi South 3.5 mph - N/A   Overcast
8:00 AM 1.4 °F -6.2 °F -2.2 °F 85% 30.18 in 7.0 mi West 3.5 mph - N/A   Overcast
8:20 AM -0.4 °F -12.0 °F -4.0 °F 85% 30.20 in 9.0 mi WSW 5.8 mph - N/A   Overcast
8:40 AM -0.4 °F -12.0 °F -5.8 °F 78% 30.21 in 9.0 mi WSW 5.8 mph - N/A   Overcast
9:00 AM 1.4 °F -8.3 °F -2.2 °F 85% 30.21 in 9.0 mi SW 4.6 mph - N/A   Overcast
9:20 AM 3.2 °F -7.8 °F -2.2 °F 78% 30.21 in 10.0 mi SSW 5.8 mph - N/A   Mostly Cloudy
9:40 AM 8.6 °F 2.0 °F 1.4 °F 73% 30.20 in 10.0 mi South 3.5 mph - N/A   Scattered Clouds
10:00 AM 10.4 °F - 5.0 °F 79% 30.21 in 10.0 mi Calm Calm - N/A   Clear
10:20 AM 14.0 °F - 5.0 °F 67% 30.21 in 10.0 mi Calm Calm - N/A   Clear
10:40 AM 14.0 °F 6.5 °F 5.0 °F 67% 30.21 in 10.0 mi WSW 4.6 mph - N/A   Clear
11:00 AM 14.0 °F 5.1 °F 5.0 °F 67% 30.21 in 10.0 mi SW 5.8 mph - N/A   Clear
11:20 AM 15.8 °F - 6.8 °F 68% 30.20 in 10.0 mi Calm Calm - N/A   Clear
11:40 AM 15.8 °F 8.6 °F 6.8 °F 68% 30.18 in 10.0 mi SW 4.6 mph - N/A   Clear
12:00 PM 17.6 °F - 6.8 °F 63% 30.18 in 10.0 mi Calm Calm - N/A   Clear
12:20 PM 17.6 °F - 6.8 °F 63% 30.17 in 10.0 mi Calm Calm - N/A   Clear
12:40 PM 19.4 °F - 6.8 °F 58% 30.17 in 10.0 mi Calm Calm - N/A   Clear
1:00 PM 19.4 °F - 6.8 °F 58% 30.17 in 10.0 mi Calm Calm - N/A   Clear
1:20 PM 19.4 °F - 6.8 °F 58% 30.17 in 10.0 mi Calm Calm - N/A   Clear
1:40 PM 19.4 °F - 6.8 °F 58% 30.16 in 10.0 mi Calm Calm - N/A   Clear
2:00 PM 21.2 °F - 6.8 °F 54% 30.17 in 10.0 mi Calm Calm - N/A   Clear
2:20 PM 21.2 °F 14.9 °F 6.8 °F 54% 30.16 in 10.0 mi South 4.6 mph - N/A   Clear
2:40 PM 19.4 °F 12.8 °F 6.8 °F 58% 30.16 in 10.0 mi SW 4.6 mph - N/A   Partly Cloudy
3:00 PM 19.4 °F - 6.8 °F 58% 30.16 in 10.0 mi Calm Calm - N/A   Partly Cloudy
3:20 PM 21.2 °F - 5.0 °F 50% 30.16 in 10.0 mi Calm Calm - N/A   Clear
3:40 PM 19.4 °F - 5.0 °F 54% 30.16 in 10.0 mi Calm Calm - N/A   Clear
4:20 PM 12.2 °F - 1.4 °F 62% 30.17 in 10.0 mi Calm Calm - N/A   Clear
4:40 PM 8.6 °F - -0.4 °F 67% 30.17 in 10.0 mi Calm Calm - N/A   Clear
5:00 PM 1.4 °F - -4.0 °F 78% 30.17 in 10.0 mi Calm Calm - N/A   Clear
5:20 PM -0.4 °F -13.4 °F -7.6 °F 72% 30.17 in 10.0 mi SSW 6.9 mph - N/A   Clear
5:40 PM -2.2 °F -15.6 °F -7.6 °F 78% 30.17 in 10.0 mi SSW 6.9 mph - N/A   Clear
6:00 PM -5.8 °F - -11.2 °F 77% 30.18 in 10.0 mi Calm Calm - N/A   Clear
6:20 PM -4.0 °F -12.4 °F -9.4 °F 78% 30.18 in 10.0 mi SSE 3.5 mph - N/A   Clear
6:40 PM -4.0 °F -12.4 °F -9.4 °F 78% 30.18 in 10.0 mi South 3.5 mph - N/A   Clear
7:00 PM -7.6 °F -20.6 °F -11.2 °F 84% 30.18 in 10.0 mi SW 5.8 mph - N/A   Clear
7:20 PM -7.6 °F -18.8 °F - N/A% 30.17 in 10.0 mi SSW 4.6 mph - N/A   Clear
7:40 PM -9.4 °F -18.6 °F -14.8 °F 77% 30.17 in 10.0 mi West 3.5 mph - N/A   Clear
8:00 PM -7.6 °F -20.6 °F -11.2 °F 84% 30.17 in 10.0 mi SSW 5.8 mph - N/A   Clear
8:20 PM -2.2 °F -15.6 °F -7.6 °F 78% 30.17 in 10.0 mi SSW 6.9 mph - N/A   Clear
8:40 PM -0.4 °F -14.7 °F -5.8 °F 78% 30.18 in 10.0 mi South 8.1 mph - N/A   Clear
9:20 PM -0.4 °F -13.4 °F -5.8 °F 78% 30.19 in 10.0 mi SW 6.9 mph - N/A   Clear
9:40 PM -7.6 °F -23.4 °F - N/A% 30.20 in 10.0 mi SW 8.1 mph - N/A   Clear
10:00 PM -4.0 °F -17.8 °F -9.4 °F 78% 30.21 in 10.0 mi SSW 6.9 mph - N/A   Clear
10:20 PM -5.8 °F -19.9 °F -11.2 °F 77% 30.22 in 10.0 mi South 6.9 mph - N/A   Clear
10:40 PM -9.4 °F -22.7 °F -14.8 °F 77% 30.22 in 10.0 mi SSW 5.8 mph - N/A   Clear
11:00 PM -7.6 °F -20.6 °F -13.0 °F 77% 30.22 in 10.0 mi SSW 5.8 mph - N/A   Clear
11:20 PM -7.6 °F -20.6 °F -13.0 °F 77% 30.22 in 10.0 mi SSW 5.8 mph - N/A   Clear
11:40 PM -9.4 °F -25.6 °F -14.8 °F 77% 30.23 in 10.0 mi SW 8.1 mph - N/A   Clear